ECMWFNIL_925_temp_114.txt.gz
Temp
-2 -2 -3 -3 -3 -3 -3 -3 -3 -3 -4 -4 -4 -5 -5 -6 -6 -7 -7 -8 -9 -9 -10 -10 -10 -11 -11 -11 -12 -12 -12 -12 -12 -12 -12 -13 -13 -13 -13 -13 -14 -14
-2 -2 -3 -3 -3 -3 -3 -3 -3 -3 -4 -4 -4 -5 -5 -6 -6 -7 -8 -9 -9 -9 -10 -10 -11 -11 -11 -11 -12 -12 -12 -12 -12 -13 -13 -13 -13 -13 -13 -14 -14 -14
-2 -2 -3 -3 -3 -3 -3 -3 -3 -4 -4 -4 -4 -5 -5 -6 -6 -7 -8 -9 -9 -10 -10 -10 -11 -11 -11 -12 -12 -12 -12 -12 -12 -13 -13 -13 -13 -13 -14 -14 -14 -14
-2 -2 -3 -3 -3 -3 -3 -3 -4 -4 -4 -5 -5 -5 -5 -6 -6 -7 -8 -9 -9 -10 -10 -10 -11 -11 -12 -12 -12 -12 -12 -13 -13 -13 -13 -13 -13 -14 -14 -14 -14 -14
-2 -3 -3 -3 -3 -3 -4 -4 -4 -4 -5 -5 -5 -6 -6 -6 -7 -8 -9 -9 -10 -10 -10 -11 -11 -11 -12 -12 -12 -12 -13 -13 -13 -13 -13 -13 -14 -14 -14 -14 -14 -15
-2 -3 -3 -3 -3 -4 -4 -4 -4 -5 -5 -5 -6 -6 -6 -6 -7 -8 -9 -9 -10 -10 -10 -11 -11 -11 -12 -12 -12 -12 -12 -13 -13 -13 -13 -13 -14 -14 -14 -15 -15 -15
-2 -2 -3 -3 -4 -4 -4 -5 -5 -5 -5 -6 -6 -6 -7 -7 -7 -8 -9 -9 -10 -10 -10 -11 -11 -11 -12 -12 -12 -12 -13 -13 -13 -13 -13 -14 -14 -14 -14 -15 -15 -15
-2 -3 -3 -3 -4 -4 -5 -5 -5 -6 -6 -6 -6 -7 -7 -7 -8 -8 -9 -9 -10 -10 -11 -11 -11 -11 -12 -12 -12 -13 -13 -13 -13 -13 -14 -14 -14 -14 -14 -15 -15 -16
-2 -3 -3 -4 -4 -5 -5 -5 -5 -6 -6 -6 -7 -7 -7 -7 -8 -9 -9 -10 -10 -10 -11 -11 -11 -12 -12 -12 -13 -13 -13 -13 -13 -14 -14 -14 -14 -14 -15 -15 -15 -16
-2 -3 -3 -4 -4 -5 -5 -5 -6 -6 -7 -7 -7 -8 -8 -8 -8 -9 -9 -10 -10 -11 -11 -11 -12 -12 -12 -13 -13 -13 -13 -13 -14 -14 -14 -14 -14 -15 -15 -15 -15 -16
-2 -3 -3 -4 -4 -5 -5 -5 -6 -7 -7 -7 -8 -8 -8 -8 -9 -9 -10 -10 -11 -11 -11 -12 -12 -12 -13 -13 -13 -13 -14 -14 -14 -14 -15 -15 -15 -15 -15 -15 -16 -16
-3 -3 -4 -4 -5 -5 -5 -6 -6 -7 -7 -8 -8 -8 -8 -9 -9 -9 -10 -10 -11 -11 -12 -12 -12 -13 -13 -13 -13 -14 -14 -14 -15 -15 -15 -15 -15 -16 -16 -16 -16 -16
-3 -3 -4 -4 -5 -5 -6 -6 -7 -7 -8 -8 -8 -9 -9 -9 -9 -9 -10 -10 -11 -11 -12 -12 -13 -13 -13 -14 -14 -14 -14 -15 -15 -15 -16 -16 -16 -16 -16 -16 -17 -17
-3 -4 -4 -5 -5 -6 -6 -7 -7 -8 -8 -8 -9 -9 -9 -9 -9 -9 -10 -11 -11 -12 -12 -13 -13 -14 -14 -14 -15 -15 -15 -16 -16 -16 -16 -16 -16 -16 -17 -17 -17 -17
-4 -4 -5 -5 -6 -6 -7 -7 -8 -8 -9 -9 -9 -9 -9 -9 -9 -10 -10 -11 -12 -12 -13 -13 -14 -14 -14 -15 -15 -15 -16 -16 -16 -17 -17 -17 -17 -17 -17 -17 -18 -18
-5 -5 -6 -6 -7 -7 -7 -8 -8 -9 -9 -9 -9 -9 -9 -9 -10 -10 -11 -11 -12 -12 -13 -13 -14 -14 -14 -15 -15 -16 -16 -16 -17 -17 -17 -17 -17 -18 -18 -18 -18 -18
-5 -6 -6 -7 -7 -8 -8 -8 -9 -9 -9 -10 -9 -9 -9 -10 -10 -11 -11 -12 -12 -13 -13 -14 -14 -14 -14 -15 -15 -16 -16 -16 -17 -17 -17 -17 -17 -17 -18 -18 -18 -18
-6 -7 -7 -7 -8 -8 -9 -9 -9 -10 -10 -10 -10 -9 -10 -10 -11 -11 -12 -12 -13 -13 -14 -14 -14 -14 -15 -15 -16 -16 -16 -16 -16 -17 -17 -17 -17 -17 -17 -18 -18 -18
-7 -7 -8 -8 -9 -9 -9 -9 -10 -10 -10 -10 -10 -10 -10 -11 -11 -12 -12 -13 -13 -14 -14 -14 -14 -15 -15 -16 -16 -16 -16 -16 -16 -16 -16 -16 -16 -17 -17 -17 -18 -18
-7 -8 -8 -9 -9 -9 -10 -10 -10 -10 -10 -10 -10 -11 -11 -12 -12 -13 -13 -13 -14 -14 -14 -15 -15 -15 -16 -16 -16 -16 -16 -16 -16 -16 -16 -16 -16 -16 -17 -17 -17 -17
-8 -8 -9 -9 -10 -10 -10 -10 -10 -10 -10 -10 -11 -11 -12 -12 -12 -13 -13 -14 -14 -14 -15 -15 -15 -15 -16 -17 -17 -17 -16 -16 -16 -16 -16 -16 -16 -16 -17 -17 -17 -17
-9 -9 -9 -10 -10 -10 -11 -11 -10 -10 -11 -11 -11 -12 -12 -13 -13 -14 -14 -14 -15 -15 -15 -16 -16 -16 -17 -17 -17 -17 -16 -16 -16 -16 -16 -16 -17 -17 -17 -17 -17 -17
-9 -9 -10 -10 -11 -11 -11 -11 -11 -11 -11 -11 -12 -12 -13 -13 -14 -14 -15 -15 -15 -15 -16 -16 -16 -17 -17 -18 -17 -17 -17 -16 -16 -17 -17 -17 -17 -17 -18 -18 -18 -18
-9 -10 -10 -11 -11 -11 -11 -11 -11 -11 -11 -12 -12 -13 -14 -14 -14 -15 -15 -15 -16 -16 -16 -17 -17 -17 -18 -18 -18 -17 -17 -17 -17 -17 -17 -17 -18 -18 -18 -18 -18 -18
-10 -10 -10 -11 -11 -11 -10 -11 -11 -11 -12 -12 -13 -14 -14 -15 -15 -15 -16 -16 -16 -17 -17 -17 -18 -18 -18 -18 -18 -18 -17 -17 -17 -18 -18 -18 -18 -18 -18 -18 -19 -19
-10 -10 -11 -11 -11 -11 -11 -11 -12 -12 -13 -13 -14 -14 -15 -16 -16 -16 -17 -17 -17 -17 -18 -18 -18 -19 -18 -18 -18 -18 -18 -18 -18 -18 -18 -18 -18 -18 -19 -19 -19 -19

ECMWFNIL_925_temp_117.txt.gz
Temp
1 1 1 1 1 1 1 1 1 1 0 -0 -1 -1 -2 -3 -3 -4 -4 -5 -5 -6 -6 -6 -7 -7 -7 -8 -8 -8 -8 -9 -9 -9 -9 -9 -10 -10 -10 -10 -10 -10
1 1 1 1 1 1 1 1 1 1 1 0 -0 -1 -1 -2 -3 -4 -4 -5 -5 -6 -6 -7 -7 -7 -8 -8 -8 -8 -9 -9 -9 -9 -9 -10 -10 -10 -10 -11 -11 -11
1 1 1 1 1 1 1 1 1 1 1 0 -0 -0 -1 -2 -3 -3 -4 -5 -5 -6 -7 -7 -7 -8 -8 -8 -8 -9 -9 -9 -9 -9 -10 -10 -10 -10 -10 -11 -11 -11
1 1 1 1 1 1 1 1 1 1 1 0 -0 -1 -1 -2 -3 -4 -4 -5 -6 -6 -7 -7 -8 -8 -8 -9 -9 -9 -9 -9 -9 -9 -10 -10 -10 -10 -11 -11 -11 -11
2 1 1 1 1 1 1 1 0 0 0 0 -0 -1 -1 -2 -3 -4 -5 -5 -6 -6 -7 -8 -8 -8 -9 -9 -9 -9 -9 -9 -9 -10 -10 -10 -10 -11 -11 -11 -11 -11
2 2 1 1 1 0 0 0 0 0 -0 -0 -1 -1 -2 -3 -3 -4 -5 -5 -6 -7 -7 -8 -8 -9 -9 -9 -9 -9 -9 -9 -10 -10 -10 -10 -10 -11 -11 -12 -12 -12
2 2 1 1 1 0 0 0 -0 -0 -0 -1 -1 -2 -2 -3 -4 -4 -5 -6 -6 -7 -7 -8 -8 -9 -9 -9 -9 -9 -9 -9 -10 -10 -10 -10 -10 -11 -11 -12 -12 -12
2 2 1 1 1 0 -0 -0 -0 -1 -1 -1 -2 -2 -3 -4 -4 -5 -5 -6 -6 -7 -8 -8 -9 -9 -9 -9 -9 -9 -9 -10 -10 -10 -10 -10 -11 -11 -11 -12 -12 -12
2 2 2 1 1 0 -0 -1 -1 -1 -2 -2 -2 -3 -3 -4 -4 -5 -5 -6 -7 -7 -8 -9 -9 -9 -10 -10 -10 -10 -10 -10 -10 -10 -10 -11 -11 -11 -11 -12 -12 -12
3 2 2 1 1 0 -0 -1 -1 -2 -2 -3 -3 -3 -4 -5 -5 -5 -6 -6 -7 -8 -8 -9 -9 -10 -10 -10 -10 -10 -10 -10 -10 -10 -11 -11 -11 -11 -12 -12 -12 -13
3 2 2 1 1 -0 -1 -1 -2 -2 -3 -3 -4 -4 -4 -5 -6 -6 -6 -7 -8 -8 -9 -9 -10 -10 -10 -10 -10 -10 -10 -10 -11 -11 -11 -11 -12 -12 -12 -12 -12 -13
3 2 2 1 0 -0 -1 -2 -2 -3 -3 -4 -4 -5 -5 -5 -6 -7 -7 -7 -8 -9 -9 -10 -10 -10 -10 -10 -10 -10 -11 -11 -11 -11 -12 -12 -12 -12 -13 -13 -13 -13
3 2 2 1 -0 -1 -2 -2 -3 -3 -4 -4 -5 -5 -6 -6 -7 -7 -8 -8 -9 -9 -9 -10 -10 -10 -10 -10 -10 -11 -11 -11 -11 -12 -12 -12 -13 -13 -13 -13 -14 -14
2 2 1 0 -1 -2 -2 -3 -3 -4 -4 -5 -5 -6 -6 -7 -7 -8 -8 -9 -9 -9 -10 -10 -10 -10 -10 -11 -11 -11 -11 -12 -12 -12 -13 -13 -13 -13 -14 -14 -14 -14
1 1 0 -1 -2 -2 -3 -3 -4 -4 -5 -5 -6 -6 -7 -7 -8 -8 -9 -9 -9 -10 -10 -10 -10 -11 -11 -11 -11 -11 -12 -12 -13 -13 -13 -13 -14 -14 -14 -14 -14 -15
0 -1 -1 -2 -3 -3 -3 -4 -5 -5 -6 -6 -7 -7 -7 -8 -8 -9 -9 -9 -10 -10 -10 -10 -11 -11 -11 -11 -11 -12 -12 -12 -13 -13 -14 -14 -14 -15 -15 -15 -15 -15
-1 -2 -3 -3 -3 -4 -4 -5 -5 -6 -6 -7 -7 -8 -8 -8 -9 -9 -9 -10 -10 -10 -11 -11 -11 -11 -11 -12 -12 -12 -13 -13 -13 -14 -14 -15 -15 -15 -15 -16 -16 -16
-2 -3 -4 -4 -4 -5 -5 -6 -6 -7 -7 -7 -8 -8 -9 -9 -9 -10 -10 -10 -10 -10 -11 -11 -11 -11 -11 -12 -12 -12 -13 -13 -14 -14 -15 -15 -16 -16 -16 -16 -16 -16
-3 -4 -4 -5 -5 -6 -6 -7 -7 -7 -8 -8 -9 -9 -9 -10 -10 -10 -10 -11 -11 -10 -11 -11 -11 -11 -12 -12 -12 -12 -12 -13 -14 -14 -15 -16 -16 -16 -16 -16 -16 -16
-4 -5 -5 -6 -6 -6 -7 -7 -8 -8 -8 -9 -9 -10 -10 -10 -10 -11 -11 -11 -11 -10 -11 -11 -12 -12 -12 -12 -13 -13 -13 -13 -13 -14 -14 -15 -15 -16 -16 -16 -16 -16
-5 -6 -6 -7 -7 -7 -8 -8 -8 -9 -9 -9 -10 -10 -11 -11 -11 -11 -11 -11 -11 -11 -11 -12 -12 -12 -13 -13 -13 -13 -13 -13 -13 -14 -14 -15 -15 -15 -16 -16 -16 -16
-6 -6 -7 -7 -8 -8 -8 -9 -9 -9 -10 -10 -11 -11 -11 -11 -11 -11 -11 -11 -11 -12 -12 -13 -13 -13 -13 -14 -13 -13 -13 -13 -14 -14 -15 -15 -15 -15 -15 -16 -16 -16
-7 -7 -8 -8 -8 -9 -9 -10 -10 -10 -11 -11 -11 -12 -12 -12 -12 -12 -12 -12 -12 -12 -13 -13 -13 -13 -14 -14 -14 -14 -14 -14 -15 -15 -15 -15 -16 -16 -16 -16 -16 -16
-7 -8 -8 -9 -9 -9 -10 -10 -11 -11 -12 -12 -12 -12 -12 -12 -12 -12 -13 -13 -13 -13 -13 -14 -14 -14 -14 -14 -14 -14 -14 -15 -15 -15 -16 -16 -16 -16 -16 -16 -16 -16
-8 -8 -9 -9 -9 -10 -10 -11 -11 -12 -12 -12 -12 -12 -12 -12 -13 -13 -14 -14 -14 -14 -14 -14 -15 -14 -14 -15 -15 -15 -15 -15 -15 -16 -16 -16 -16 -16 -16 -17 -17 -17
-8 -9 -9 -10 -10 -10 -11 -11 -12 -12 -12 -12 -12 -12 -13 -13 -14 -14 -14 -15 -15 -15 -15 -15 -15 -15 -15 -15 -16 -15 -15 -15 -16 -16 -16 -16 -17 -17 -17 -17 -17 -17

ECMWFNIL_925_temp_120.txt.gz
Temp
2 2 2 2 2 2 2 2 3 2 2 2 1 0 -1 -1 -2 -2 -3 -3 -3 -4 -4 -4 -4 -5 -5 -5 -5 -6 -6 -6 -7 -7 -7 -8 -8 -8 -8 -8 -8 -8
3 2 2 2 2 2 2 2 2 2 2 2 2 1 0 -1 -1 -2 -3 -3 -3 -4 -4 -4 -4 -5 -5 -5 -6 -6 -6 -7 -7 -7 -8 -8 -8 -8 -8 -8 -9 -9
3 3 2 2 2 2 2 2 2 2 2 2 2 2 1 0 -1 -2 -2 -3 -3 -4 -4 -4 -4 -5 -5 -5 -6 -6 -7 -7 -7 -8 -8 -8 -8 -9 -9 -9 -9 -9
3 3 3 2 2 2 2 2 2 2 2 2 2 2 1 1 -0 -1 -2 -3 -3 -3 -4 -4 -5 -5 -5 -6 -6 -6 -7 -7 -7 -8 -8 -8 -9 -9 -9 -9 -9 -9
3 3 3 3 2 2 2 2 2 2 2 2 2 2 1 1 0 -1 -2 -2 -3 -3 -4 -4 -5 -5 -6 -6 -6 -7 -7 -7 -8 -8 -8 -9 -9 -9 -9 -9 -10 -10
4 3 3 3 3 2 2 2 2 2 2 2 2 2 1 1 0 -0 -1 -2 -3 -4 -4 -5 -5 -5 -6 -6 -7 -7 -7 -8 -8 -8 -8 -9 -9 -9 -9 -10 -10 -10
4 4 3 3 3 2 2 2 2 2 2 2 2 1 1 1 1 -0 -1 -2 -3 -4 -4 -5 -5 -5 -6 -6 -7 -7 -8 -8 -8 -8 -9 -9 -9 -10 -10 -10 -10 -10
4 4 4 3 3 2 2 2 2 2 1 1 1 1 1 1 1 -0 -1 -2 -3 -4 -4 -5 -5 -6 -6 -7 -7 -7 -8 -8 -9 -9 -9 -10 -10 -10 -10 -10 -10 -10
5 4 4 3 3 3 2 2 2 2 1 1 1 1 1 1 0 -0 -1 -2 -3 -4 -4 -5 -5 -6 -6 -7 -7 -8 -8 -9 -9 -9 -10 -10 -10 -10 -10 -10 -11 -11
5 4 4 3 3 3 2 2 2 1 1 1 1 1 1 0 0 -0 -1 -2 -3 -4 -4 -5 -6 -6 -7 -7 -8 -8 -9 -9 -9 -10 -10 -10 -10 -10 -10 -11 -11 -11
5 5 4 4 3 3 2 2 2 1 1 1 1 0 0 -0 -1 -1 -2 -3 -3 -4 -5 -5 -6 -7 -7 -8 -8 -9 -9 -9 -10 -10 -10 -10 -11 -11 -11 -11 -11 -11
5 5 4 4 3 3 2 2 2 1 1 1 0 -0 -0 -1 -1 -2 -3 -3 -4 -4 -5 -6 -6 -7 -7 -8 -9 -9 -10 -10 -10 -10 -11 -11 -11 -11 -11 -11 -11 -11
5 4 4 4 3 3 2 2 2 1 1 0 -0 -1 -1 -2 -2 -3 -3 -4 -4 -5 -6 -6 -7 -7 -8 -8 -9 -9 -10 -10 -10 -11 -11 -11 -11 -11 -11 -11 -11 -11
4 4 4 3 3 3 2 2 1 1 0 -0 -1 -1 -2 -2 -3 -3 -4 -5 -5 -6 -6 -7 -7 -8 -9 -9 -9 -10 -10 -10 -11 -11 -11 -11 -11 -11 -11 -11 -11 -11
4 4 3 3 3 2 2 1 0 -0 -1 -1 -2 -2 -2 -3 -3 -4 -5 -5 -6 -7 -7 -7 -8 -8 -9 -9 -10 -10 -10 -11 -11 -11 -11 -11 -11 -11 -11 -11 -12 -12
3 3 2 2 2 1 1 -0 -1 -1 -2 -2 -3 -3 -3 -4 -4 -5 -6 -6 -7 -7 -8 -8 -9 -9 -9 -10 -10 -10 -11 -11 -11 -11 -11 -12 -12 -12 -12 -12 -12 -12
2 1 1 1 0 -0 -1 -1 -2 -2 -2 -3 -3 -4 -4 -5 -5 -6 -6 -7 -7 -8 -8 -9 -9 -9 -10 -10 -10 -11 -11 -11 -11 -11 -12 -12 -12 -12 -12 -12 -13 -13
0 -0 -1 -1 -1 -2 -2 -2 -3 -3 -3 -4 -4 -5 -5 -6 -6 -7 -7 -8 -8 -8 -9 -9 -10 -10 -10 -10 -10 -10 -11 -11 -11 -12 -12 -12 -12 -12 -13 -13 -13 -13
-1 -2 -2 -2 -3 -3 -3 -4 -4 -4 -5 -5 -5 -6 -6 -7 -7 -7 -8 -8 -9 -9 -9 -10 -10 -10 -10 -10 -10 -10 -11 -11 -12 -12 -12 -12 -13 -13 -13 -13 -14 -14
-3 -3 -3 -4 -4 -4 -5 -5 -5 -5 -6 -6 -6 -7 -7 -8 -8 -8 -9 -9 -9 -10 -10 -10 -11 -11 -11 -10 -10 -10 -10 -11 -12 -12 -12 -13 -13 -13 -14 -14 -14 -14
-4 -4 -4 -5 -5 -6 -6 -6 -6 -7 -7 -7 -8 -8 -8 -8 -9 -9 -9 -10 -10 -10 -11 -11 -11 -11 -11 -10 -10 -10 -10 -10 -11 -12 -13 -13 -13 -14 -14 -14 -14 -15
-5 -5 -5 -6 -6 -7 -7 -7 -7 -8 -8 -8 -9 -9 -9 -9 -9 -10 -10 -10 -11 -11 -11 -12 -11 -11 -11 -11 -10 -10 -10 -10 -11 -12 -13 -14 -14 -14 -14 -15 -15 -15
-6 -6 -6 -7 -7 -7 -8 -8 -8 -9 -9 -9 -9 -10 -10 -10 -11 -11 -11 -11 -11 -11 -12 -12 -12 -12 -12 -11 -11 -11 -11 -11 -11 -12 -13 -13 -14 -14 -15 -15 -15 -15
-7 -7 -7 -8 -8 -8 -8 -9 -9 -9 -10 -10 -10 -11 -11 -11 -11 -12 -12 -12 -12 -12 -12 -12 -12 -12 -12 -12 -12 -11 -11 -12 -12 -13 -13 -13 -14 -14 -14 -15 -15 -15
-7 -8 -8 -8 -9 -9 -9 -9 -10 -10 -10 -11 -11 -11 -12 -12 -12 -12 -13 -13 -12 -12 -12 -12 -12 -12 -12 -12 -12 -12 -12 -12 -13 -13 -14 -14 -14 -15 -15 -15 -15 -16
-8 -9 -9 -9 -9 -10 -10 -10 -11 -11 -11 -12 -12 -12 -12 -13 -13 -13 -13 -13 -13 -13 -13 -13 -13 -13 -13 -13 -13 -13 -13 -13 -13 -14 -14 -15 -15 -15 -15 -16 -16 -16

ECMWFNIL_925_temp_123.txt.gz
Temp
3 3 2 2 2 2 2 2 2 2 1 1 1 0 -0 -1 -1 -2 -2 -2 -3 -3 -3 -3 -3 -3 -4 -4 -4 -4 -5 -5 -5 -5 -5 -5 -5 -6 -6 -6 -6 -6
3 3 2 2 2 2 2 2 2 2 2 1 1 1 0 -0 -1 -1 -2 -2 -3 -3 -3 -3 -3 -4 -4 -4 -4 -5 -5 -5 -5 -6 -6 -6 -6 -6 -6 -6 -6 -6
3 3 3 2 2 2 2 2 2 2 2 2 2 1 1 0 -0 -1 -2 -2 -3 -3 -3 -3 -4 -4 -4 -4 -5 -5 -5 -5 -6 -6 -6 -6 -6 -7 -7 -7 -7 -7
3 3 3 3 3 2 2 2 2 2 2 2 2 2 1 1 0 -0 -1 -2 -2 -3 -3 -3 -4 -4 -4 -4 -5 -5 -5 -5 -5 -6 -6 -7 -7 -7 -7 -7 -7 -7
4 4 3 3 3 2 2 2 2 2 1 1 2 1 1 1 1 -0 -1 -2 -2 -3 -3 -3 -4 -4 -4 -5 -5 -5 -5 -6 -6 -6 -6 -7 -7 -7 -7 -8 -8 -8
4 4 3 3 3 2 2 2 2 2 1 2 2 1 1 1 1 0 -0 -1 -2 -2 -3 -3 -4 -4 -4 -5 -5 -5 -5 -6 -6 -6 -7 -7 -7 -7 -8 -8 -8 -8
4 4 4 4 3 3 2 2 2 2 2 2 1 1 1 1 1 1 -0 -1 -1 -2 -3 -3 -4 -4 -4 -5 -5 -5 -5 -6 -6 -6 -7 -7 -7 -8 -8 -8 -8 -9
5 5 4 4 3 3 3 2 2 2 2 2 1 1 1 1 1 1 0 -0 -1 -2 -2 -3 -3 -4 -4 -5 -5 -5 -5 -6 -6 -6 -7 -7 -7 -8 -8 -8 -9 -9
6 5 5 4 4 3 3 3 3 2 2 2 1 1 1 1 1 1 0 -0 -1 -2 -2 -3 -3 -4 -4 -5 -5 -5 -6 -6 -6 -6 -7 -7 -8 -8 -8 -9 -9 -9
6 6 5 5 4 4 3 3 3 3 2 2 2 1 1 1 1 1 0 -0 -1 -1 -2 -3 -3 -4 -4 -5 -5 -5 -6 -6 -6 -6 -7 -7 -7 -8 -8 -9 -9 -10
6 6 6 5 5 4 4 4 3 3 2 2 2 1 1 1 1 0 0 -0 -1 -1 -2 -2 -3 -4 -4 -5 -5 -5 -6 -6 -6 -7 -7 -7 -8 -8 -9 -9 -10 -10
6 6 6 5 5 5 4 4 3 3 2 2 2 1 1 1 0 0 0 -0 -1 -1 -2 -2 -3 -3 -4 -4 -5 -5 -6 -6 -7 -7 -7 -8 -8 -8 -9 -9 -10 -10
6 6 5 5 5 4 4 4 3 3 2 2 2 1 1 1 0 -0 -0 -0 -1 -1 -2 -2 -3 -3 -4 -5 -5 -6 -6 -7 -7 -7 -8 -8 -8 -9 -9 -10 -10 -11
4 4 4 4 4 3 3 3 3 2 2 2 2 1 1 1 0 -0 -0 -1 -1 -1 -2 -2 -3 -4 -4 -5 -6 -6 -7 -7 -7 -8 -8 -9 -9 -9 -10 -10 -11 -11
2 2 2 2 2 2 2 2 2 2 2 1 1 1 1 0 0 -0 -1 -1 -1 -2 -3 -3 -4 -4 -5 -6 -6 -7 -7 -8 -8 -8 -9 -9 -10 -10 -10 -11 -11 -11
1 1 1 1 1 1 1 1 1 1 1 0 0 -0 -0 -1 -1 -1 -2 -2 -2 -3 -4 -4 -5 -5 -6 -6 -6 -7 -7 -8 -9 -9 -9 -10 -10 -11 -11 -11 -11 -11
-0 -1 -1 -0 -1 -1 -0 -1 -1 -1 -1 -1 -1 -1 -1 -2 -2 -2 -3 -3 -3 -4 -4 -5 -5 -6 -6 -7 -7 -7 -8 -8 -9 -9 -10 -10 -11 -11 -11 -12 -12 -12
-2 -2 -2 -2 -2 -2 -2 -2 -2 -2 -2 -2 -2 -2 -3 -3 -3 -3 -4 -4 -4 -5 -5 -6 -6 -6 -7 -7 -8 -8 -8 -9 -9 -10 -10 -11 -11 -11 -11 -12 -12 -12
-3 -3 -3 -3 -3 -3 -3 -3 -3 -3 -3 -4 -4 -4 -4 -4 -4 -5 -5 -5 -6 -6 -6 -7 -7 -7 -8 -8 -8 -8 -8 -9 -10 -10 -11 -11 -11 -12 -12 -12 -12 -12
-4 -4 -4 -4 -4 -4 -4 -4 -4 -5 -5 -5 -5 -5 -5 -5 -6 -6 -6 -6 -7 -7 -7 -7 -8 -8 -8 -8 -8 -8 -8 -9 -10 -10 -11 -11 -12 -12 -12 -12 -12 -12
-5 -5 -5 -5 -5 -5 -5 -5 -6 -6 -6 -6 -6 -6 -6 -7 -7 -7 -7 -7 -8 -8 -8 -8 -8 -9 -9 -9 -9 -8 -8 -8 -10 -11 -11 -11 -12 -12 -12 -12 -12 -12
-6 -6 -6 -6 -6 -6 -7 -7 -7 -7 -7 -7 -7 -7 -7 -8 -8 -8 -8 -8 -9 -9 -9 -9 -9 -9 -10 -10 -9 -8 -8 -8 -9 -11 -11 -12 -12 -12 -12 -12 -12 -12
-8 -8 -7 -8 -8 -8 -8 -8 -8 -8 -8 -8 -8 -8 -9 -9 -9 -9 -9 -9 -10 -10 -10 -10 -10 -10 -10 -10 -9 -9 -9 -9 -10 -11 -12 -12 -12 -12 -12 -12 -12 -13
-9 -9 -9 -9 -9 -9 -9 -9 -9 -9 -9 -9 -9 -10 -10 -10 -10 -10 -10 -11 -11 -11 -11 -11 -11 -11 -11 -10 -10 -9 -9 -9 -10 -11 -12 -13 -13 -13 -13 -13 -13 -13
-10 -10 -10 -10 -10 -10 -10 -10 -10 -10 -10 -10 -11 -11 -11 -11 -11 -11 -11 -11 -11 -12 -12 -12 -12 -11 -11 -11 -10 -10 -10 -10 -10 -11 -12 -13 -13 -13 -13 -13 -14 -14
-11 -11 -11 -11 -11 -11 -11 -11 -11 -11 -11 -11 -11 -12 -12 -12 -12 -12 -12 -12 -12 -12 -12 -12 -12 -12 -12 -12 -11 -11 -10 -10 -11 -11 -12 -12 -13 -13 -14 -14 -14 -14

ECMWFNIL_925_temp_126.txt.gz
Temp
4 3 3 3 3 2 2 2 2 2 1 1 1 1 1 0 0 -0 -1 -1 -1 -2 -2 -2 -2 -3 -3 -3 -3 -4 -4 -4 -4 -4 -4 -4 -4 -4 -4 -4 -4 -4
4 3 3 3 2 2 2 2 2 2 2 2 1 1 1 0 0 -0 -1 -1 -1 -2 -2 -2 -3 -3 -3 -3 -4 -4 -4 -4 -4 -4 -5 -5 -5 -5 -5 -5 -5 -5
4 3 3 3 3 3 3 2 2 2 2 2 1 1 1 1 0 -0 -1 -1 -1 -2 -2 -2 -3 -3 -3 -3 -4 -4 -4 -4 -4 -5 -5 -5 -5 -5 -5 -5 -5 -5
4 4 3 3 3 3 3 2 2 2 2 1 2 1 1 1 0 0 -0 -1 -1 -2 -2 -2 -3 -3 -3 -3 -4 -4 -4 -4 -4 -5 -5 -5 -5 -5 -5 -5 -5 -6
5 5 4 4 3 3 2 2 2 2 2 2 2 1 1 1 1 0 -0 -1 -1 -1 -2 -2 -3 -3 -3 -3 -4 -4 -4 -5 -5 -5 -5 -5 -5 -6 -5 -6 -6 -6
6 5 5 4 4 3 2 2 2 2 2 2 2 1 1 1 1 1 0 -0 -1 -1 -2 -2 -2 -3 -3 -3 -4 -4 -4 -5 -5 -5 -5 -5 -6 -6 -6 -6 -6 -6
6 6 5 5 4 3 3 3 2 2 2 2 2 2 1 1 1 1 0 0 -0 -1 -1 -2 -2 -3 -3 -3 -4 -4 -5 -5 -5 -5 -5 -5 -6 -6 -6 -6 -6 -7
6 6 5 5 4 3 3 3 3 3 3 2 2 2 1 1 1 1 1 0 -0 -1 -1 -2 -2 -2 -3 -3 -4 -4 -5 -5 -5 -5 -5 -6 -6 -6 -6 -6 -7 -7
4 4 4 3 3 3 3 3 3 3 3 3 2 2 2 1 1 1 1 0 -0 -1 -1 -2 -2 -2 -3 -3 -4 -4 -4 -5 -5 -5 -5 -5 -6 -6 -6 -6 -7 -7
3 3 3 3 2 2 3 3 3 4 3 3 3 2 2 1 1 1 1 0 -0 -0 -1 -2 -2 -2 -3 -3 -4 -4 -4 -4 -5 -5 -5 -5 -6 -6 -6 -6 -7 -7
3 3 3 2 2 2 2 3 3 3 3 3 2 2 2 2 1 1 0 0 -0 -0 -1 -1 -2 -2 -3 -3 -3 -4 -4 -4 -5 -5 -5 -5 -5 -6 -6 -6 -7 -7
2 2 2 2 2 2 2 2 2 2 2 2 2 2 2 1 1 1 0 0 -0 -0 -1 -1 -2 -2 -2 -3 -3 -4 -4 -4 -5 -5 -5 -5 -6 -6 -6 -6 -7 -7
0 0 0 0 1 1 1 1 1 1 1 1 2 1 1 1 1 1 0 -0 -0 -0 -1 -1 -1 -2 -2 -3 -3 -4 -4 -5 -5 -5 -5 -6 -6 -6 -6 -7 -7 -7
-1 -1 -1 -1 -1 -1 -0 -0 0 0 0 1 1 0 0 0 0 0 -0 -0 -0 -1 -1 -1 -2 -2 -3 -3 -4 -4 -4 -5 -5 -5 -6 -6 -6 -6 -7 -7 -7 -8
-2 -2 -2 -2 -2 -2 -2 -1 -1 -1 -1 -0 -0 -1 -1 -1 -1 -1 -1 -1 -1 -1 -1 -2 -2 -2 -3 -3 -4 -4 -5 -5 -5 -6 -6 -6 -7 -7 -7 -7 -8 -8
-3 -3 -3 -3 -3 -3 -3 -3 -3 -2 -2 -2 -2 -2 -2 -2 -2 -2 -2 -2 -2 -2 -2 -2 -3 -3 -3 -3 -4 -4 -5 -5 -6 -6 -6 -7 -7 -8 -8 -8 -8 -8
-5 -5 -4 -4 -4 -4 -4 -4 -4 -4 -4 -4 -4 -3 -3 -3 -3 -3 -3 -3 -3 -3 -3 -3 -4 -4 -4 -4 -5 -5 -5 -6 -6 -7 -7 -7 -8 -8 -8 -9 -9 -9
-6 -6 -6 -5 -5 -5 -5 -5 -5 -5 -5 -5 -5 -5 -5 -5 -5 -5 -5 -5 -5 -5 -5 -5 -5 -5 -5 -5 -6 -6 -6 -6 -7 -7 -8 -8 -8 -8 -9 -9 -9 -10
-7 -7 -7 -7 -7 -7 -6 -6 -6 -6 -6 -6 -6 -6 -6 -6 -6 -6 -6 -6 -6 -6 -6 -6 -6 -6 -6 -6 -6 -7 -7 -7 -7 -7 -8 -8 -9 -9 -9 -9 -10 -10
-8 -8 -8 -8 -8 -8 -7 -7 -7 -7 -7 -7 -7 -7 -7 -7 -7 -7 -7 -7 -7 -7 -7 -7 -7 -7 -7 -7 -7 -7 -7 -7 -8 -8 -8 -9 -9 -9 -10 -10 -10 -11
-10 -10 -9 -9 -9 -9 -9 -9 -8 -8 -8 -8 -8 -8 -8 -8 -8 -8 -8 -8 -8 -8 -8 -8 -8 -8 -8 -8 -8 -8 -7 -7 -7 -8 -9 -9 -9 -9 -10 -10 -10 -11
-11 -11 -11 -10 -10 -10 -10 -10 -10 -10 -9 -9 -9 -9 -9 -9 -9 -9 -9 -9 -9 -9 -9 -9 -9 -9 -9 -9 -9 -8 -8 -8 -8 -8 -9 -9 -10 -10 -10 -10 -11 -11
-12 -12 -12 -11 -11 -11 -11 -11 -11 -11 -10 -10 -10 -10 -10 -10 -10 -10 -10 -10 -10 -10 -10 -10 -10 -10 -10 -10 -10 -9 -9 -8 -8 -8 -9 -10 -10 -10 -11 -11 -11 -11
-13 -12 -12 -12 -12 -12 -12 -12 -12 -11 -11 -11 -11 -11 -11 -11 -11 -11 -11 -11 -11 -11 -11 -11 -11 -11 -11 -11 -10 -10 -9 -9 -9 -9 -10 -10 -11 -11 -12 -12 -12 -12
-13 -13 -13 -13 -13 -13 -13 -13 -13 -12 -12 -12 -12 -12 -12 -12 -12 -12 -12 -12 -12 -12 -12 -12 -12 -12 -12 -12 -11 -11 -10 -10 -10 -10 -11 -11 -12 -12 -12 -12 -12 -13
-13 -13 -13 -14 -14 -14 -14 -13 -13 -13 -13 -13 -13 -13 -13 -13 -13 -13 -13 -13 -13 -13 -13 -13 -13 -12 -12 -12 -12 -12 -11 -11 -11 -11 -11 -12 -12 -12 -13 -13 -13 -13

ECMWFNIL_925_temp_129.txt.gz
Temp
4 4 3 3 3 3 3 3 3 2 2 2 2 2 2 2 1 1 1 0 0 -0 -0 -1 -1 -1 -2 -2 -2 -3 -3 -3 -3 -3 -3 -3 -3 -4 -4 -4 -4 -4
4 4 3 3 3 3 3 3 3 2 2 2 2 2 2 2 1 1 1 0 -0 -0 -0 -1 -1 -1 -2 -2 -3 -3 -3 -3 -3 -3 -4 -4 -4 -4 -4 -4 -4 -4
4 4 3 3 3 3 3 3 2 2 2 2 2 2 2 2 1 1 1 0 0 -0 -0 -1 -1 -2 -2 -2 -3 -3 -3 -3 -3 -4 -4 -4 -4 -4 -4 -4 -4 -4
3 3 3 3 3 3 3 3 2 2 2 2 2 2 2 1 1 1 1 0 0 -0 -0 -1 -1 -2 -2 -2 -3 -3 -3 -3 -3 -4 -4 -4 -4 -4 -4 -5 -5 -5
3 3 3 3 3 3 2 2 2 2 2 2 2 2 2 1 1 1 1 0 0 -0 -0 -1 -1 -2 -2 -2 -3 -3 -3 -4 -4 -4 -4 -4 -4 -5 -5 -5 -5 -5
3 3 2 2 2 2 2 1 2 2 2 2 2 2 1 1 1 1 0 0 0 -0 -0 -1 -1 -2 -2 -2 -3 -3 -3 -4 -4 -4 -4 -4 -5 -5 -5 -5 -5 -5
2 2 2 2 2 2 2 1 2 1 1 2 1 1 1 1 1 1 0 0 0 -0 -0 -1 -1 -2 -2 -3 -3 -3 -3 -4 -4 -4 -4 -4 -5 -5 -5 -5 -5 -6
2 2 2 2 2 2 1 1 1 1 1 1 1 1 1 1 1 1 0 0 -0 -0 -1 -1 -1 -1 -2 -2 -3 -3 -3 -4 -4 -4 -4 -5 -5 -5 -5 -5 -5 -6
1 1 1 1 1 1 1 1 1 1 1 0 0 1 1 0 0 0 0 0 -0 -0 -1 -1 -1 -1 -2 -2 -3 -3 -3 -4 -4 -4 -4 -5 -5 -5 -5 -5 -6 -6
-0 -0 -0 -0 -0 -0 -0 -0 -0 -0 -0 -0 -0 -0 -0 0 0 0 -0 -0 -0 -0 -0 -1 -1 -1 -2 -2 -2 -3 -3 -3 -4 -4 -4 -4 -5 -5 -5 -5 -6 -6
-2 -2 -2 -2 -2 -1 -1 -1 -1 -1 -1 -1 -1 -1 -1 -1 -0 -0 -0 -0 -0 -0 -0 -1 -1 -1 -2 -2 -2 -3 -3 -3 -3 -4 -4 -4 -4 -5 -5 -5 -5 -6
-3 -3 -3 -3 -3 -3 -3 -3 -2 -2 -2 -2 -2 -2 -1 -1 -1 -1 -1 -1 -1 -1 -1 -1 -1 -1 -2 -2 -2 -3 -3 -3 -4 -4 -4 -4 -5 -5 -5 -5 -5 -5
-5 -5 -5 -5 -5 -4 -4 -4 -4 -3 -3 -3 -3 -2 -2 -2 -2 -2 -2 -2 -2 -2 -2 -1 -1 -2 -2 -2 -2 -3 -3 -3 -4 -4 -4 -4 -5 -5 -5 -5 -5 -6
-6 -6 -6 -6 -6 -5 -5 -5 -5 -5 -5 -4 -4 -4 -4 -3 -3 -3 -3 -3 -3 -3 -3 -2 -2 -2 -2 -2 -3 -3 -3 -4 -4 -4 -5 -5 -5 -5 -5 -5 -5 -6
-8 -7 -7 -7 -6 -6 -6 -6 -6 -6 -6 -6 -5 -5 -5 -5 -4 -4 -4 -4 -4 -4 -4 -4 -3 -3 -3 -3 -3 -3 -4 -4 -4 -4 -5 -5 -5 -5 -5 -6 -6 -6
-8 -8 -8 -8 -7 -7 -7 -7 -7 -7 -7 -7 -6 -6 -6 -6 -6 -6 -5 -5 -5 -5 -5 -5 -5 -5 -4 -4 -4 -4 -4 -5 -5 -5 -5 -5 -6 -6 -6 -6 -6 -6
-10 -10 -9 -9 -9 -9 -9 -9 -8 -8 -8 -8 -7 -7 -7 -7 -7 -7 -7 -7 -6 -6 -6 -6 -6 -6 -6 -6 -6 -6 -5 -5 -5 -6 -6 -6 -6 -6 -7 -7 -7 -7
-11 -11 -11 -10 -10 -10 -10 -10 -10 -9 -9 -8 -8 -8 -8 -8 -8 -8 -8 -8 -8 -8 -7 -7 -7 -7 -7 -7 -7 -7 -6 -6 -6 -6 -6 -7 -7 -7 -7 -7 -7 -7
-12 -12 -12 -12 -12 -12 -11 -11 -11 -10 -10 -10 -10 -9 -9 -9 -9 -9 -9 -9 -9 -9 -9 -9 -8 -8 -8 -8 -8 -8 -7 -7 -7 -7 -7 -7 -7 -7 -7 -8 -8 -8
-13 -13 -13 -13 -13 -13 -12 -12 -12 -11 -11 -11 -11 -11 -10 -10 -10 -10 -10 -10 -10 -10 -10 -10 -10 -9 -9 -9 -9 -8 -8 -7 -7 -7 -7 -7 -7 -7 -8 -8 -8 -8
-14 -14 -14 -14 -14 -13 -13 -13 -13 -12 -12 -12 -12 -12 -11 -11 -11 -11 -11 -11 -11 -11 -11 -11 -10 -10 -10 -10 -9 -9 -8 -8 -8 -8 -8 -8 -8 -8 -8 -8 -8 -8
-15 -14 -14 -14 -14 -14 -14 -14 -13 -13 -13 -13 -13 -12 -12 -12 -12 -12 -12 -12 -12 -11 -12 -11 -11 -11 -11 -11 -10 -10 -9 -9 -9 -9 -9 -8 -8 -9 -9 -9 -9 -9
-15 -15 -15 -14 -14 -14 -14 -14 -14 -14 -14 -13 -13 -13 -13 -13 -13 -13 -12 -13 -12 -12 -12 -12 -12 -12 -12 -12 -11 -10 -10 -10 -10 -10 -10 -10 -9 -9 -9 -9 -10 -10
-16 -15 -15 -15 -15 -15 -15 -15 -15 -14 -14 -14 -14 -14 -14 -13 -13 -13 -13 -13 -13 -13 -13 -13 -13 -13 -13 -13 -12 -11 -11 -11 -11 -11 -11 -11 -11 -11 -10 -10 -10 -11
-16 -16 -15 -15 -15 -15 -15 -15 -15 -15 -15 -15 -14 -14 -14 -14 -14 -14 -14 -14 -14 -14 -14 -14 -14 -13 -13 -13 -13 -12 -12 -12 -12 -12 -12 -12 -12 -12 -12 -11 -11 -11
-16 -16 -16 -15 -15 -15 -15 -15 -15 -15 -15 -15 -15 -15 -15 -15 -15 -15 -14 -14 -14 -14 -14 -15 -15 -14 -14 -14 -14 -13 -13 -13 -13 -13 -13 -13 -13 -12 -12 -12 -12 -12